FIN7TP EFOU-EFHK

Flight info

Callsign FIN7TP
Flight time 0h 46m
Altitude 31000
Route MIKNU Y86 LUSEP
Aircraft A320/M-SDE1E2E3FGIJ1M1RWXYZ/LB1

Departure

Time 2026-04-22 15:32
Airport Oulu Airport (EFOU)

Arrival

Time 2026-04-22 16:19
Airport Helsinki Vantaa Airport (EFHK)
Time Latitude Longitude Altitude Speed Heading
2026-04-22 14:58 64.92783 25.37463 50 ft 0 kts 30°
2026-04-22 15:23 64.92775 25.37451 47 ft 4 kts 31°
2026-04-22 15:23 64.92752 25.37420 48 ft 2 kts 31°
2026-04-22 15:23 64.92734 25.37388 45 ft 4 kts 56°
2026-04-22 15:24 64.92727 25.37334 46 ft 4 kts 103°
2026-04-22 15:24 64.92737 25.37277 46 ft 3 kts 121°
2026-04-22 15:24 64.92739 25.37268 45 ft 0 kts 121°
2026-04-22 15:29 64.92729 25.37306 47 ft 8 kts 121°
2026-04-22 15:30 64.92639 25.37661 46 ft 7 kts 121°
2026-04-22 15:30 64.92623 25.37724 46 ft 8 kts 121°
2026-04-22 15:30 64.92568 25.37906 43 ft 16 kts 143°
2026-04-22 15:30 64.92482 25.37821 43 ft 20 kts 247°
2026-04-22 15:31 64.92486 25.37507 46 ft 19 kts 295°
2026-04-22 15:31 64.92499 25.37452 44 ft 0 kts 300°
2026-04-22 15:31 64.92500 25.37449 44 ft 5 kts 300°
2026-04-22 15:32 64.92660 25.36827 51 ft 80 kts 301°
2026-04-22 15:32 64.93046 25.35302 56 ft 136 kts 301°
2026-04-22 15:32 64.93563 25.33248 495 ft 149 kts 306°
2026-04-22 15:32 64.94096 25.31136 1329 ft 148 kts 310°
2026-04-22 15:33 64.94651 25.28991 1817 ft 165 kts 311°
2026-04-22 15:33 64.95295 25.26520 2344 ft 181 kts 310°
2026-04-22 15:33 64.95924 25.23928 3263 ft 186 kts 302°
2026-04-22 15:33 64.95971 25.20715 4078 ft 217 kts 260°
2026-04-22 15:34 64.95002 25.17579 4555 ft 260 kts 225°
2026-04-22 15:34 64.93426 25.15150 5008 ft 289 kts 212°
2026-04-22 15:34 64.91530 25.13081 5740 ft 304 kts 198°
2026-04-22 15:34 64.89407 25.12501 6609 ft 311 kts 176°
2026-04-22 15:35 64.87977 25.12846 7178 ft 313 kts 167°
2026-04-22 15:35 64.85185 25.14698 8347 ft 318 kts 159°
2026-04-22 15:35 64.83046 25.16219 9242 ft 324 kts 160°
2026-04-22 15:35 64.80866 25.17747 10079 ft 331 kts 159°
2026-04-22 15:36 64.78579 25.19364 10399 ft 355 kts 159°
2026-04-22 15:36 64.76144 25.21104 10827 ft 373 kts 160°
2026-04-22 15:36 64.73635 25.22901 11459 ft 382 kts 160°
2026-04-22 15:36 64.71075 25.24734 12154 ft 389 kts 160°
2026-04-22 15:37 64.68453 25.26611 12880 ft 396 kts 160°
2026-04-22 15:37 64.65797 25.28518 13584 ft 403 kts 160°
2026-04-22 15:37 64.63093 25.30465 14170 ft 410 kts 160°
2026-04-22 15:37 64.60337 25.32444 14732 ft 418 kts 160°
2026-04-22 15:38 64.57526 25.34458 15277 ft 427 kts 160°
2026-04-22 15:38 64.51743 25.38563 16367 ft 443 kts 160°
2026-04-22 15:38 64.48771 25.40659 16908 ft 450 kts 160°
2026-04-22 15:39 64.45714 25.42575 17436 ft 460 kts 167°
2026-04-22 15:39 64.42511 25.43519 17950 ft 469 kts 178°
2026-04-22 15:39 64.39227 25.43468 18434 ft 475 kts 183°
2026-04-22 15:39 64.35907 25.43255 18914 ft 479 kts 184°
2026-04-22 15:40 64.32562 25.43053 19516 ft 482 kts 183°
2026-04-22 15:40 64.29199 25.42864 20187 ft 486 kts 183°
2026-04-22 15:40 64.25790 25.42678 20633 ft 493 kts 183°
2026-04-22 15:40 64.22343 25.42494 21152 ft 498 kts 183°
2026-04-22 15:41 64.18867 25.42313 21697 ft 502 kts 183°
2026-04-22 15:41 64.15364 25.42126 22244 ft 506 kts 183°
2026-04-22 15:41 64.11828 25.41935 22752 ft 510 kts 183°
2026-04-22 15:41 64.08266 25.41752 23297 ft 514 kts 183°
2026-04-22 15:42 64.04676 25.41570 23745 ft 518 kts 183°
2026-04-22 15:42 64.01063 25.41383 24148 ft 520 kts 183°
2026-04-22 15:42 63.97441 25.41193 24640 ft 521 kts 183°
2026-04-22 15:42 63.93811 25.40995 25073 ft 523 kts 183°
2026-04-22 15:43 63.90160 25.40793 25507 ft 526 kts 183°
2026-04-22 15:43 63.86488 25.40592 25916 ft 529 kts 183°
2026-04-22 15:43 63.82801 25.40396 26297 ft 532 kts 183°
2026-04-22 15:43 63.79092 25.40213 26690 ft 534 kts 182°
2026-04-22 15:44 63.75364 25.40037 27081 ft 537 kts 182°
2026-04-22 15:44 63.71672 25.39863 27446 ft 540 kts 182°
2026-04-22 15:44 63.67905 25.39676 27766 ft 542 kts 183°
2026-04-22 15:44 63.64129 25.39478 28190 ft 543 kts 183°
2026-04-22 15:45 63.60344 25.39272 28580 ft 545 kts 183°
2026-04-22 15:45 63.56540 25.39058 28933 ft 548 kts 183°
2026-04-22 15:45 63.52720 25.38843 29310 ft 552 kts 182°
2026-04-22 15:45 63.48867 25.38634 29583 ft 556 kts 182°
2026-04-22 15:46 63.44993 25.38434 29884 ft 559 kts 182°
2026-04-22 15:46 63.41100 25.38244 30148 ft 561 kts 182°
2026-04-22 15:46 63.37191 25.38055 30436 ft 563 kts 182°
2026-04-22 15:46 63.33272 25.37867 30673 ft 563 kts 182°
2026-04-22 15:47 63.29360 25.37678 30796 ft 560 kts 182°
2026-04-22 15:47 63.25525 25.37489 30821 ft 542 kts 182°
2026-04-22 15:47 63.18090 25.37101 30804 ft 531 kts 182°
2026-04-22 15:48 63.10724 25.36719 30807 ft 529 kts 182°
2026-04-22 15:48 63.03366 25.36334 30800 ft 529 kts 182°
2026-04-22 15:49 62.96018 25.35965 30800 ft 527 kts 182°
2026-04-22 15:49 62.88698 25.35609 30781 ft 526 kts 182°
2026-04-22 15:50 62.82614 25.35299 30779 ft 526 kts 182°
2026-04-22 15:50 62.75282 25.34933 30789 ft 528 kts 182°
2026-04-22 15:51 62.67939 25.34562 30713 ft 528 kts 182°
2026-04-22 15:51 62.64275 25.34385 30450 ft 525 kts 182°
2026-04-22 15:51 62.60643 25.34220 30210 ft 522 kts 182°
2026-04-22 15:52 62.57012 25.34053 29935 ft 520 kts 182°
2026-04-22 15:52 62.53397 25.33875 29676 ft 519 kts 182°
2026-04-22 15:52 62.49794 25.33691 29385 ft 517 kts 182°
2026-04-22 15:52 62.46202 25.33508 29096 ft 515 kts 182°
2026-04-22 15:53 62.42628 25.33329 28810 ft 513 kts 182°
2026-04-22 15:53 62.39070 25.33158 28541 ft 511 kts 182°
2026-04-22 15:53 62.35524 25.32990 28274 ft 509 kts 182°
2026-04-22 15:53 62.31992 25.32820 28002 ft 507 kts 182°
2026-04-22 15:54 62.28474 25.32646 27737 ft 505 kts 182°
2026-04-22 15:54 62.24975 25.32478 27478 ft 503 kts 182°
2026-04-22 15:54 62.21479 25.32318 27221 ft 501 kts 182°
2026-04-22 15:54 62.18001 25.32161 26967 ft 499 kts 182°
2026-04-22 15:55 62.14535 25.31997 26719 ft 497 kts 182°
2026-04-22 15:55 62.11129 25.31829 26475 ft 495 kts 183°
2026-04-22 15:55 62.07693 25.31659 26232 ft 493 kts 183°
2026-04-22 15:55 62.04272 25.31493 26024 ft 488 kts 183°
2026-04-22 15:56 62.00889 25.31333 25550 ft 485 kts 183°
2026-04-22 15:56 61.97530 25.31177 25118 ft 482 kts 183°
2026-04-22 15:56 61.94185 25.31024 24646 ft 480 kts 183°
2026-04-22 15:56 61.90853 25.30872 24167 ft 478 kts 183°
2026-04-22 15:57 61.87529 25.30720 23697 ft 477 kts 183°
2026-04-22 15:57 61.84210 25.30569 23159 ft 477 kts 183°
2026-04-22 15:57 61.80904 25.30413 22645 ft 474 kts 184°
2026-04-22 15:57 61.77609 25.30255 22142 ft 472 kts 184°
2026-04-22 15:58 61.74335 25.30099 21648 ft 470 kts 184°
2026-04-22 15:58 61.71073 25.29947 21162 ft 468 kts 184°
2026-04-22 15:58 61.67829 25.29800 20671 ft 464 kts 184°
2026-04-22 15:58 61.64612 25.29656 20188 ft 462 kts 184°
2026-04-22 15:59 61.61406 25.29514 19711 ft 460 kts 184°
2026-04-22 15:59 61.58216 25.29366 19224 ft 458 kts 184°
2026-04-22 15:59 61.55036 25.29214 18751 ft 456 kts 185°
2026-04-22 15:59 61.51864 25.29061 18276 ft 455 kts 185°
2026-04-22 16:00 61.48704 25.28909 17759 ft 454 kts 185°
2026-04-22 16:00 61.45554 25.28757 17295 ft 451 kts 185°
2026-04-22 16:00 61.42452 25.28456 17020 ft 439 kts 193°
2026-04-22 16:00 61.39602 25.27036 16890 ft 419 kts 204°
2026-04-22 16:01 61.36862 25.25292 16635 ft 409 kts 204°
2026-04-22 16:01 61.34149 25.23540 16336 ft 404 kts 205°
2026-04-22 16:01 61.31483 25.21801 15983 ft 400 kts 205°
2026-04-22 16:01 61.28839 25.20070 15620 ft 397 kts 204°
2026-04-22 16:02 61.26215 25.18348 15271 ft 394 kts 204°
2026-04-22 16:02 61.23608 25.16640 14997 ft 391 kts 205°
2026-04-22 16:02 61.21030 25.14962 14691 ft 387 kts 204°
2026-04-22 16:02 61.18473 25.13302 14368 ft 383 kts 204°
2026-04-22 16:03 61.15936 25.11654 14051 ft 380 kts 204°
2026-04-22 16:03 61.13425 25.10025 13732 ft 377 kts 204°
2026-04-22 16:03 61.10930 25.08415 13392 ft 374 kts 204°
2026-04-22 16:03 61.08454 25.06827 12955 ft 372 kts 203°
2026-04-22 16:04 61.05990 25.05249 12572 ft 369 kts 203°
2026-04-22 16:04 61.03544 25.03689 12222 ft 366 kts 203°
2026-04-22 16:04 61.01122 25.02144 11871 ft 363 kts 203°
2026-04-22 16:04 60.98724 25.00609 11529 ft 359 kts 202°
2026-04-22 16:05 60.96346 24.99088 11171 ft 356 kts 202°
2026-04-22 16:05 60.93991 24.97584 10811 ft 353 kts 202°
2026-04-22 16:05 60.91655 24.96093 10468 ft 350 kts 202°
2026-04-22 16:05 60.89340 24.94622 10125 ft 347 kts 202°
2026-04-22 16:06 60.87048 24.93168 9808 ft 343 kts 202°
2026-04-22 16:06 60.84785 24.91738 9627 ft 336 kts 201°
2026-04-22 16:06 60.82575 24.90344 9494 ft 331 kts 201°
2026-04-22 16:06 60.80381 24.88956 9332 ft 330 kts 201°
2026-04-22 16:07 60.78190 24.87568 9196 ft 329 kts 201°
2026-04-22 16:07 60.76006 24.86188 9059 ft 328 kts 201°
2026-04-22 16:07 60.73827 24.84818 8923 ft 327 kts 201°
2026-04-22 16:07 60.71658 24.83458 8788 ft 326 kts 201°
2026-04-22 16:08 60.69493 24.82104 8653 ft 325 kts 201°
2026-04-22 16:08 60.67336 24.80759 8520 ft 323 kts 201°
2026-04-22 16:08 60.65191 24.79423 8385 ft 322 kts 201°
2026-04-22 16:08 60.63047 24.78086 8257 ft 321 kts 201°
2026-04-22 16:09 60.60915 24.76751 8122 ft 320 kts 201°
2026-04-22 16:09 60.58789 24.75420 7989 ft 320 kts 201°
2026-04-22 16:09 60.56664 24.74099 7863 ft 318 kts 201°
2026-04-22 16:09 60.54552 24.72791 7733 ft 317 kts 201°
2026-04-22 16:10 60.52447 24.71489 7574 ft 316 kts 201°
2026-04-22 16:10 60.50350 24.70193 7445 ft 314 kts 201°
2026-04-22 16:10 60.48265 24.68903 7317 ft 313 kts 201°
2026-04-22 16:10 60.46185 24.67615 7185 ft 312 kts 201°
2026-04-22 16:11 60.44114 24.66336 7058 ft 311 kts 200°
2026-04-22 16:11 60.42069 24.65081 6923 ft 310 kts 200°
2026-04-22 16:11 60.40002 24.63819 6556 ft 309 kts 200°
2026-04-22 16:11 60.37951 24.62566 6152 ft 307 kts 201°
2026-04-22 16:12 60.35914 24.61316 5706 ft 306 kts 201°
2026-04-22 16:12 60.33892 24.60075 5344 ft 302 kts 201°
2026-04-22 16:12 60.31890 24.58850 4896 ft 301 kts 201°
2026-04-22 16:12 60.29915 24.57648 4727 ft 290 kts 201°
2026-04-22 16:13 60.28026 24.56491 4596 ft 277 kts 204°
2026-04-22 16:13 60.26279 24.55093 4458 ft 266 kts 201°
2026-04-22 16:13 60.24472 24.55031 4326 ft 261 kts 163°
2026-04-22 16:13 60.22900 24.56616 4183 ft 247 kts 138°
2026-04-22 16:14 60.21757 24.59012 4044 ft 230 kts 117°
2026-04-22 16:14 60.21087 24.61789 3896 ft 214 kts 97°
2026-04-22 16:14 60.20885 24.64663 3646 ft 202 kts 77°
2026-04-22 16:14 60.21124 24.67355 3377 ft 194 kts 65°
2026-04-22 16:15 60.21647 24.69752 2998 ft 182 kts 35°
2026-04-22 16:15 60.22650 24.71388 2426 ft 195 kts 37°
2026-04-22 16:15 60.23548 24.73381 2303 ft 187 kts 39°
2026-04-22 16:15 60.24382 24.75253 2183 ft 175 kts 38°
2026-04-22 16:16 60.25179 24.77009 1938 ft 163 kts 37°
2026-04-22 16:16 60.25903 24.78600 1741 ft 144 kts 36°
2026-04-22 16:16 60.26547 24.80009 1563 ft 132 kts 35°
2026-04-22 16:16 60.27160 24.81342 1382 ft 128 kts 36°
2026-04-22 16:17 60.27763 24.82659 1198 ft 128 kts 36°
2026-04-22 16:17 60.28368 24.83997 959 ft 131 kts 36°
2026-04-22 16:17 60.28996 24.85361 806 ft 136 kts 37°
2026-04-22 16:17 60.29642 24.86756 638 ft 139 kts 40°
2026-04-22 16:18 60.30311 24.88203 456 ft 141 kts 38°
2026-04-22 16:18 60.30970 24.89675 310 ft 140 kts 35°
2026-04-22 16:18 60.31625 24.91116 165 ft 129 kts 40°
2026-04-22 16:18 60.32156 24.92264 161 ft 89 kts 49°
2026-04-22 16:19 60.32465 24.92960 175 ft 56 kts 46°
2026-04-22 16:19 60.32729 24.93528 180 ft 54 kts 49°
2026-04-22 16:19 60.32903 24.93923 190 ft 35 kts 49°
2026-04-22 16:19 60.33047 24.94300 186 ft 25 kts 88°
2026-04-22 16:20 60.33045 24.94573 183 ft 1 kts 93°
2026-04-22 16:20 60.33045 24.94574 183 ft 0 kts 93°
2026-04-22 16:21 60.33044 24.94612 183 ft 6 kts 93°
2026-04-22 16:21 60.33042 24.94737 180 ft 11 kts 92°
2026-04-22 16:21 60.33082 24.94898 178 ft 16 kts 50°
2026-04-22 16:21 60.33115 24.95146 178 ft 22 kts 73°
2026-04-22 16:22 60.33173 24.95580 181 ft 18 kts 135°
2026-04-22 16:22 60.33063 24.95775 181 ft 23 kts 146°
2026-04-22 16:22 60.32942 24.95918 176 ft 22 kts 150°
2026-04-22 16:23 60.32688 24.96217 172 ft 19 kts 149°
2026-04-22 16:23 60.32563 24.96362 174 ft 17 kts 149°
2026-04-22 16:23 60.32553 24.96375 174 ft 1 kts 149°
2026-04-22 16:24 60.32542 24.96388 174 ft 4 kts 149°
2026-04-22 16:24 60.32424 24.96525 176 ft 11 kts 150°
2026-04-22 16:24 60.32323 24.96642 169 ft 18 kts 149°
2026-04-22 16:25 60.32219 24.96765 165 ft 14 kts 149°
2026-04-22 16:25 60.32158 24.96835 164 ft 6 kts 150°
2026-04-22 16:25 60.32099 24.96852 164 ft 12 kts 209°
2026-04-22 16:26 60.32027 24.96699 164 ft 13 kts 227°
2026-04-22 16:26 60.31961 24.96556 163 ft 16 kts 227°
2026-04-22 16:26 60.31896 24.96504 163 ft 8 kts 150°
2026-04-22 16:26 60.31875 24.96538 163 ft 1 kts 138°
2026-04-22 16:27 60.31871 24.96545 163 ft 0 kts 138°